Weather History for Dansville, NY

Change the Weather History Date:

Monday, October 1, 2012

  Actual Average Record
Temperature  
Mean Temperature 56 °F -  
Max Temperature 64 °F 68 °F 89 °F (1953)
Min Temperature 48 °F 43 °F 28 °F (1993)
Degree Days  
Heating Degree Days 9    
Growing Degree Days 6 (Base 50)    
Moisture  
Dew Point 51 °F    
Average Humidity 86    
Maximum Humidity 100    
Minimum Humidity 61    
Precipitation  
Precipitation 0.00 in - - ()
Sea Level Pressure  
Sea Level Pressure 29.92 in    
Wind  
Wind Speed 3 mph (SSE)    
Max Wind Speed 9 mph    
Max Gust Speed -    
Visibility 10 miles    
Events      
Averages and records for this station are not official NWS values.
T = Trace of Precipitation, MM = Missing Value Source: NWS Daily Summary

Daily Weather History Graph

Daily Weather History Graph

Search for Another Location

Airport:

Trip Planner

Search our weather history database for the weather conditions in past years. The results will help you decide how hot, cold, wet, or windy it might be!

Date:

Astronomy

Oct. 01, 2012 Rise Set
Actual Time 7:08 AM EDT 6:51 PM EDT
Civil Twilight 6:40 AM EDT 7:19 PM EDT
Nautical Twilight 6:07 AM EDT 7:52 PM EDT
Astronomical Twilight 5:34 AM EDT 8:25 PM EDT
Moon 7:23 PM EDT (10/1) 8:39 AM EDT (10/1)
Length of Visible Light 12h 39m
Length of Day
11h 42m
Full, 98% of the Moon is Illuminated
Oct 1
Full
Oct 8
Last Quarter
Oct 15
New
Oct 21
First Quarter
Oct 29
Full

Hourly Weather History & Observations

Time (EDT) Temp. Dew Point Humidity Pressure Visibility Wind Dir Wind Speed Gust Speed Precip Events Conditions
12:54 AM 50.0 °F 50.0 °F 100% 29.88 in 10.0 mi ESE 4.6 mph - N/A   Overcast
1:54 AM 53.1 °F 48.9 °F 86% 29.87 in 10.0 mi Calm Calm - N/A   Overcast
2:54 AM 52.0 °F 48.9 °F 89% 29.88 in 10.0 mi Variable 3.5 mph - N/A   Mostly Cloudy
3:54 AM 48.0 °F 48.0 °F 100% 29.87 in 10.0 mi Calm Calm - N/A   Scattered Clouds
4:54 AM 48.9 °F 48.9 °F 100% 29.88 in 10.0 mi South 3.5 mph - N/A   Overcast
5:54 AM 50.0 °F 50.0 °F 100% 29.88 in 10.0 mi SE 4.6 mph - N/A   Overcast
7:54 AM 52.0 °F 51.1 °F 97% 29.91 in 10.0 mi ESE 5.8 mph - N/A   Overcast
8:54 AM 55.9 °F 51.1 °F 84% 29.93 in 10.0 mi Calm Calm - N/A   Overcast
9:38 AM 55.4 °F 51.8 °F 88% 29.91 in 10.0 mi East 3.5 mph - N/A   Overcast
10:54 AM 59.0 °F 52.0 °F 78% 29.95 in 10.0 mi West 3.5 mph - N/A   Overcast
11:22 AM 59.0 °F 51.8 °F 77% 29.92 in 10.0 mi West 4.6 mph - N/A   Overcast
11:54 AM 61.0 °F 51.1 °F 70% 29.94 in 10.0 mi Variable 5.8 mph - N/A   Overcast
12:54 PM 63.0 °F 52.0 °F 67% 29.94 in 10.0 mi Variable 6.9 mph - N/A   Overcast
1:54 PM 64.0 °F 51.1 °F 63% 29.93 in 10.0 mi Variable 5.8 mph - N/A   Overcast
2:54 PM 64.9 °F 51.1 °F 61% 29.93 in 10.0 mi NW 9.2 mph - N/A   Overcast
4:54 PM 64.9 °F 52.0 °F 63% 29.93 in 10.0 mi Variable 4.6 mph - N/A   Overcast
6:54 PM 57.9 °F 53.1 °F 84% 29.95 in 10.0 mi Calm Calm - N/A   Clear
7:54 PM 55.0 °F 55.0 °F 100% 29.96 in 10.0 mi Calm Calm - N/A   Clear
8:54 PM 53.1 °F 53.1 °F 100% 29.98 in 10.0 mi Calm Calm - N/A   Clear
9:54 PM 53.1 °F 53.1 °F 100% 29.98 in 10.0 mi Calm Calm - N/A   Clear
10:54 PM 54.0 °F 53.1 °F 97% 29.96 in 10.0 mi South 3.5 mph - N/A   Clear